SCP
0 0 0 0 0 0 2 2 2 3 3 3 3 0 0 2 3 3 3 3 3 5
0 0 0 0 0 0 0 2 2 3 3 3 1 1 2 2 3 3 5 6 5 3
0 0 0 -0 -0 0 0 1 2 2 4 3 3 3 4 5 4 4 7 8 5 4
0 0 0 0 -0 -0 0 1 1 2 3 3 3 3 3 5 4 6 4 6 6 4
0 0 0 0 -0 -0 -0 0 1 1 2 2 3 0 0 1 1 1 2 2 4 4
0 0 0 0 0 -0 -0 -0 1 1 1 0 1 0 0 0 0 0 0 0 3 2
0 0 0 0 0 -0 -0 -0 -0 0 0 0 0 0 0 0 0 0 0 0 0 0
0 -0 0 0 0 -0 -0 -0 -1 0 0 0 0 0 0 0 0 0 0 -0 -0 0
0 0 0 0 0 -0 -0 -0 -1 0 0 0 0 0 0 0 -0 -0 -1 -1 0 0
0 0 0 -0 0 0 -0 -0 -0 0 0 0 0 0 0 0 0 0 -0 0 0 0
0 0 -0 -0 0 0 -0 -0 0 0 0 0 0 0 -0 -0 -0 -0 0 0 0 0
0 0 0 -0 0 0 0 -0 0 0 0 0 0 -0 -0 -0 -0 0 0 0 0 0
0 0 0 -0 -0 0 -0 -0 0 -0 0 0 -0 -0 -0 -0 0 0 0 0 0 0
0 -0 0 0 0 0 -0 -0 0 0 0 -0 -0 0 0 0 0 0 0 0 0 0
Wind_Speed_500mb
54 56 57 62 77 86 84 90 106 101 100 103 86 90 93 105 113 117 109 106 103 100
55 58 68 70 67 73 90 95 93 107 97 95 89 106 107 103 105 111 112 106 95 88
68 57 66 74 78 77 78 93 101 105 113 102 100 102 114 116 107 105 102 111 98 89
62 64 72 78 86 85 80 81 105 110 109 107 97 110 114 110 106 107 106 111 107 95
59 60 69 73 80 89 93 87 91 108 104 100 98 108 97 96 98 91 94 124 97 92
52 68 67 79 79 88 89 81 83 95 97 90 98 101 98 93 60 72 59 66 63 66
74 60 54 59 73 79 81 86 79 85 87 86 85 64 62 73 94 77 63 55 22 52
95 92 74 56 55 75 78 82 83 73 80 81 64 53 43 40 55 58 53 64 66 73
101 91 80 74 50 67 67 76 68 48 68 68 56 49 27 45 66 58 59 68 66 60
94 101 94 85 57 62 58 64 51 45 53 61 63 43 30 37 54 65 63 68 65 53
72 81 88 85 69 61 60 61 55 46 44 64 77 60 71 65 69 61 64 64 67 62
69 67 60 61 70 65 59 57 62 49 65 60 84 99 82 95 77 68 72 76 71 54
70 59 55 54 60 59 51 54 56 54 34 55 111 112 82 82 81 80 72 64 55 54
63 67 45 50 55 61 54 51 49 42 48 70 105 89 91 97 91 81 77 72 72 61
Wind_Direction_500mb
290 292 295 287 279 279 279 272 260 255 246 245 243 259 260 243 241 238 234 232 230 230
294 294 293 290 285 295 275 273 270 256 247 242 244 229 232 239 237 236 231 232 232 229
280 292 293 290 287 284 287 271 267 263 253 241 236 234 238 240 236 236 233 232 232 225
279 278 293 288 289 285 290 278 266 262 259 252 240 237 239 243 245 239 237 233 227 221
275 281 287 285 288 290 286 284 268 263 259 254 246 242 229 262 255 242 244 229 227 222
281 276 280 285 287 296 295 285 270 264 254 254 248 248 249 255 241 254 265 284 211 217
281 278 282 284 288 293 298 290 272 265 253 250 245 236 229 244 264 266 286 266 224 229
275 274 278 287 293 290 303 300 298 267 253 244 233 228 229 235 227 211 181 205 221 222
281 279 271 280 297 300 301 296 303 271 243 237 217 227 206 152 164 167 190 211 215 212
280 273 273 275 291 298 298 301 294 231 222 220 205 216 208 191 203 184 206 217 206 190
280 279 273 271 274 289 295 298 295 247 247 228 236 218 180 182 199 203 205 201 192 177
282 280 276 271 266 285 289 289 292 280 243 266 234 202 189 192 199 203 190 179 179 178
277 278 272 280 263 268 281 293 293 279 259 247 213 199 184 185 187 178 173 173 178 170
272 270 272 260 254 251 274 290 291 275 231 282 201 187 180 185 186 180 171 175 178 183
Wind_Speed_850mb
54 56 57 62 77 86 84 90 106 101 100 103 86 90 93 105 113 117 109 106 103 100
55 58 68 70 67 73 90 95 93 107 97 95 89 106 107 103 105 111 112 106 95 88
68 57 66 74 78 77 78 93 101 105 113 102 100 102 114 116 107 105 102 111 98 89
62 64 72 78 86 85 80 81 105 110 109 107 97 110 114 110 106 107 106 111 107 95
59 60 69 73 80 89 93 87 91 108 104 100 98 108 97 96 98 91 94 124 97 92
52 68 67 79 79 88 89 81 83 95 97 90 98 101 98 93 60 72 59 66 63 66
74 60 54 59 73 79 81 86 79 85 87 86 85 64 62 73 94 77 63 55 22 52
95 92 74 56 55 75 78 82 83 73 80 81 64 53 43 40 55 58 53 64 66 73
101 91 80 74 50 67 67 76 68 48 68 68 56 49 27 45 66 58 59 68 66 60
94 101 94 85 57 62 58 64 51 45 53 61 63 43 30 37 54 65 63 68 65 53
72 81 88 85 69 61 60 61 55 46 44 64 77 60 71 65 69 61 64 64 67 62
69 67 60 61 70 65 59 57 62 49 65 60 84 99 82 95 77 68 72 76 71 54
70 59 55 54 60 59 51 54 56 54 34 55 111 112 82 82 81 80 72 64 55 54
63 67 45 50 55 61 54 51 49 42 48 70 105 89 91 97 91 81 77 72 72 61
Wind_Direction_850mb
290 292 295 287 279 279 279 272 260 255 246 245 243 259 260 243 241 238 234 232 230 230
294 294 293 290 285 295 275 273 270 256 247 242 244 229 232 239 237 236 231 232 232 229
280 292 293 290 287 284 287 271 267 263 253 241 236 234 238 240 236 236 233 232 232 225
279 278 293 288 289 285 290 278 266 262 259 252 240 237 239 243 245 239 237 233 227 221
275 281 287 285 288 290 286 284 268 263 259 254 246 242 229 262 255 242 244 229 227 222
281 276 280 285 287 296 295 285 270 264 254 254 248 248 249 255 241 254 265 284 211 217
281 278 282 284 288 293 298 290 272 265 253 250 245 236 229 244 264 266 286 266 224 229
275 274 278 287 293 290 303 300 298 267 253 244 233 228 229 235 227 211 181 205 221 222
281 279 271 280 297 300 301 296 303 271 243 237 217 227 206 152 164 167 190 211 215 212
280 273 273 275 291 298 298 301 294 231 222 220 205 216 208 191 203 184 206 217 206 190
280 279 273 271 274 289 295 298 295 247 247 228 236 218 180 182 199 203 205 201 192 177
282 280 276 271 266 285 289 289 292 280 243 266 234 202 189 192 199 203 190 179 179 178
277 278 272 280 263 268 281 293 293 279 259 247 213 199 184 185 187 178 173 173 178 170
272 270 272 260 254 251 274 290 291 275 231 282 201 187 180 185 186 180 171 175 178 183